Regional Weather Roundup
Issued by NWS Charleston, WV

Home | Current Version | Previous Version | Graphics & Text | Print | Product List | Glossary On
Versions: 1 2 3 4 5 6 7 8 9 10 11 12 13 14 15 16 17 18 19 20 21 22 23 24 25 26 27 28 29 30 31 32 33 34 35 36 37 38 39 40 41 42 43 44 45 46 47 48 49 50
000
ASUS41 KRLX 040810
RWRRLX
West Virginia Regional Weather Roundup
National Weather Service Charleston WV
400 AM EDT SAT JUL 04 2015

Note: "fair" indicates few or no clouds below 12,000 feet with no
significant weather and/or obstructions to visibility.

WVZ003-040900-
Northern Panhandle of West Virginia

CITY           SKY/WX    TMP DP  RH WIND       PRES   REMARKS
WHEELING       CLOUDY    66  64  93 CALM      29.87S FOG
$$

WVZ009-040900-
Northwest West Virginia

CITY           SKY/WX    TMP DP  RH WIND       PRES   REMARKS
PARKERSBURG    CLOUDY    66  64  93 W7        29.90S FOG
$$

WVZ006-040900-
Western West Virginia

CITY           SKY/WX    TMP DP  RH WIND       PRES   REMARKS
HUNTINGTON     LGT RAIN  67  67 100 N7        29.88F VSB 1
$$

WVZ015-040900-
West Central West Virginia

CITY           SKY/WX    TMP DP  RH WIND       PRES   REMARKS
CHARLESTON     LGT RAIN  69  67  93 SW8       29.88F
$$

WVZ022-031-040900-
North Central West Virginia

CITY           SKY/WX    TMP DP  RH WIND       PRES   REMARKS
CLARKSBURG     CLOUDY    66  65  96 CALM      29.87S
MORGANTOWN     CLOUDY    68  63  84 S3        29.87S
$$

WVZ025-035-042-045-040900-
Southern West Virginia

CITY           SKY/WX    TMP DP  RH WIND       PRES   REMARKS
BECKLEY        CLOUDY    66  63  90 SW7       29.95F
LOGAN          CLOUDY    66  66 100 SW6       29.89S FOG
BLUEFIELD      CLOUDY    66  62  87 W7        29.99R
LEWISBURG      FOG       65  63  93 CALM      29.95F VSB 3/4
$$

WVZ047-040900-
Northern Mountains of West Virginia

CITY           SKY/WX    TMP DP  RH WIND       PRES   REMARKS
ELKINS         CLOUDY    64  62  93 CALM      29.92S
$$

WVZ052-040900-
Eastern Panhandle of West Virginia

CITY           SKY/WX    TMP DP  RH WIND       PRES   REMARKS
MARTINSBURG    CLOUDY    67  64  90 CALM      29.90F
PETERSBURG     DRIZZLE   64  61  91 CALM      29.91S
$$


USA.gov is the U.S. government's official web portal to all federal, state and local government web resources and services.